TVF14RB LGAV-LFLL

Flight info

Callsign TVF14RB
Flight time 2h 50m
Altitude 28000
Route KOR UL53 GARTA DCT OLGAT DCT TUFTE DCT KUGIX DCT OLKIS DCT TESTO DCT TOP DCT RONOP DCT GIGUS Z40 AMVAR
Aircraft B738/M-SDE2E3FGHIRWXY/LB1

Departure

Time 2026-05-07 12:17
Airport Athens Eleftherios Venizelos International Airport (LGAV)

Arrival

Time 2026-05-07 15:07
Airport Lyon Saint-Exupéry Airport (LFLL)
Time Latitude Longitude Altitude Speed Heading
2026-05-07 11:54 37.93650 23.94887 300 ft 0 kts 307°
2026-05-07 12:04 37.93650 23.94888 300 ft 2 kts 307°
2026-05-07 12:05 37.93635 23.94913 302 ft 4 kts 307°
2026-05-07 12:05 37.93621 23.94935 301 ft 4 kts 321°
2026-05-07 12:05 37.93598 23.94947 300 ft 4 kts
2026-05-07 12:05 37.93574 23.94935 303 ft 4 kts 35°
2026-05-07 12:06 37.93565 23.94926 301 ft 0 kts 37°
2026-05-07 12:09 37.93581 23.94941 301 ft 10 kts 37°
2026-05-07 12:10 37.93668 23.95025 300 ft 21 kts 37°
2026-05-07 12:10 37.93705 23.95127 299 ft 13 kts 115°
2026-05-07 12:10 37.93654 23.95221 298 ft 13 kts 115°
2026-05-07 12:10 37.93691 23.95319 296 ft 16 kts 38°
2026-05-07 12:11 37.93800 23.95423 297 ft 23 kts 37°
2026-05-07 12:11 37.93947 23.95562 296 ft 28 kts 37°
2026-05-07 12:11 37.94101 23.95708 299 ft 27 kts 36°
2026-05-07 12:11 37.94245 23.95845 297 ft 25 kts 37°
2026-05-07 12:12 37.94380 23.95974 298 ft 23 kts 37°
2026-05-07 12:12 37.94508 23.96094 300 ft 23 kts 36°
2026-05-07 12:12 37.94632 23.96212 298 ft 22 kts 37°
2026-05-07 12:12 37.94752 23.96326 301 ft 21 kts 37°
2026-05-07 12:13 37.94869 23.96437 303 ft 21 kts 37°
2026-05-07 12:13 37.94982 23.96545 301 ft 20 kts 37°
2026-05-07 12:13 37.95093 23.96650 301 ft 20 kts 37°
2026-05-07 12:13 37.95211 23.96762 302 ft 22 kts 37°
2026-05-07 12:14 37.95300 23.96878 305 ft 12 kts 90°
2026-05-07 12:14 37.95271 23.96942 307 ft 0 kts 126°
2026-05-07 12:15 37.95268 23.96947 306 ft 4 kts 126°
2026-05-07 12:15 37.95230 23.97013 309 ft 11 kts 127°
2026-05-07 12:16 37.95185 23.97016 309 ft 8 kts 216°
2026-05-07 12:16 37.95058 23.96895 307 ft 51 kts 217°
2026-05-07 12:16 37.94580 23.96442 294 ft 119 kts 217°
2026-05-07 12:16 37.93773 23.95667 361 ft 165 kts 217°
2026-05-07 12:17 37.93175 23.95107 974 ft 152 kts 216°
2026-05-07 12:17 37.92279 23.94299 1698 ft 161 kts 212°
2026-05-07 12:17 37.91323 23.93473 2221 ft 178 kts 209°
2026-05-07 12:17 37.89748 23.92381 2645 ft 207 kts 208°
2026-05-07 12:18 37.88885 23.91803 3044 ft 210 kts 208°
2026-05-07 12:18 37.87171 23.90660 3882 ft 211 kts 207°
2026-05-07 12:18 37.86291 23.90059 4186 ft 217 kts 212°
2026-05-07 12:18 37.85181 23.87879 4619 ft 242 kts 264°
2026-05-07 12:19 37.85484 23.85763 5142 ft 256 kts 290°
2026-05-07 12:19 37.86370 23.83718 5636 ft 271 kts 300°
2026-05-07 12:19 37.87077 23.82368 6165 ft 274 kts 302°
2026-05-07 12:19 37.88159 23.80389 7046 ft 273 kts 303°
2026-05-07 12:20 37.89250 23.78415 7864 ft 274 kts 303°
2026-05-07 12:20 37.90340 23.76432 8703 ft 275 kts 303°
2026-05-07 12:20 37.91432 23.74424 9478 ft 279 kts 303°
2026-05-07 12:20 37.92529 23.72388 10219 ft 282 kts 303°
2026-05-07 12:21 37.93654 23.70284 10618 ft 299 kts 303°
2026-05-07 12:21 37.94864 23.68014 10788 ft 322 kts 303°
2026-05-07 12:21 37.96153 23.65586 11069 ft 340 kts 303°
2026-05-07 12:21 37.97483 23.63073 11658 ft 346 kts 303°
2026-05-07 12:22 37.98821 23.60537 12422 ft 346 kts 303°
2026-05-07 12:22 38.00157 23.58004 13216 ft 346 kts 303°
2026-05-07 12:22 38.01496 23.55459 13956 ft 347 kts 302°
2026-05-07 12:22 38.02840 23.52900 14572 ft 350 kts 302°
2026-05-07 12:23 38.04199 23.50310 15145 ft 355 kts 302°
2026-05-07 12:23 38.05572 23.47692 15709 ft 359 kts 302°
2026-05-07 12:23 38.06963 23.45034 16288 ft 363 kts 301°
2026-05-07 12:23 38.08366 23.42353 16880 ft 366 kts 301°
2026-05-07 12:24 38.09774 23.39659 17483 ft 368 kts 301°
2026-05-07 12:24 38.11195 23.36938 18041 ft 371 kts 300°
2026-05-07 12:24 38.12629 23.34189 18554 ft 375 kts 300°
2026-05-07 12:24 38.14075 23.31415 19041 ft 379 kts 300°
2026-05-07 12:25 38.15513 23.28654 19553 ft 381 kts 301°
2026-05-07 12:25 38.17000 23.25799 20096 ft 383 kts 301°
2026-05-07 12:25 38.18471 23.22972 20617 ft 385 kts 301°
2026-05-07 12:25 38.19932 23.20160 21122 ft 387 kts 301°
2026-05-07 12:26 38.21422 23.17292 21612 ft 390 kts 301°
2026-05-07 12:26 38.22919 23.14405 22074 ft 393 kts 301°
2026-05-07 12:26 38.24428 23.11495 22527 ft 395 kts 301°
2026-05-07 12:26 38.25945 23.08564 23005 ft 397 kts 301°
2026-05-07 12:27 38.27463 23.05632 23606 ft 396 kts 301°
2026-05-07 12:27 38.28971 23.02718 24210 ft 392 kts 301°
2026-05-07 12:27 38.30459 22.99839 24858 ft 386 kts 301°
2026-05-07 12:27 38.31924 22.97003 25514 ft 381 kts 301°
2026-05-07 12:28 38.33369 22.94202 26122 ft 377 kts 301°
2026-05-07 12:28 38.34798 22.91428 26711 ft 373 kts 301°
2026-05-07 12:28 38.36213 22.88677 27323 ft 370 kts 301°
2026-05-07 12:28 38.37616 22.85950 27886 ft 366 kts 301°
2026-05-07 12:29 38.39015 22.83226 28070 ft 369 kts 301°
2026-05-07 12:29 38.41798 22.77803 28140 ft 363 kts 301°
2026-05-07 12:30 38.44574 22.72381 28114 ft 366 kts 301°
2026-05-07 12:30 38.47364 22.66924 28106 ft 367 kts 300°
2026-05-07 12:31 38.50138 22.61492 28120 ft 364 kts 300°
2026-05-07 12:31 38.52883 22.56108 28101 ft 361 kts 300°
2026-05-07 12:32 38.55625 22.50720 28101 ft 362 kts 301°
2026-05-07 12:32 38.58363 22.45330 28103 ft 362 kts 300°
2026-05-07 12:33 38.62463 22.37242 28110 ft 361 kts 300°
2026-05-07 12:33 38.65167 22.31899 28120 ft 359 kts 300°
2026-05-07 12:34 38.67875 22.26537 28106 ft 359 kts 300°
2026-05-07 12:34 38.70585 22.21163 28113 ft 360 kts 300°
2026-05-07 12:35 38.73300 22.15769 28113 ft 361 kts 300°
2026-05-07 12:35 38.76017 22.10364 28137 ft 361 kts 300°
2026-05-07 12:36 38.78743 22.04930 28120 ft 363 kts 300°
2026-05-07 12:36 38.81469 21.99488 28112 ft 363 kts 300°
2026-05-07 12:37 38.84191 21.94045 28119 ft 362 kts 300°
2026-05-07 12:37 38.86902 21.88614 28117 ft 361 kts 300°
2026-05-07 12:38 38.89608 21.83185 28116 ft 361 kts 300°
2026-05-07 12:38 38.92316 21.77742 28103 ft 362 kts 299°
2026-05-07 12:39 38.95022 21.72294 28114 ft 362 kts 299°
2026-05-07 12:39 38.97725 21.66842 28107 ft 362 kts 300°
2026-05-07 12:40 39.00419 21.61401 28115 ft 360 kts 299°
2026-05-07 12:40 39.03102 21.55970 28106 ft 360 kts 299°
2026-05-07 12:41 39.05783 21.50537 28109 ft 360 kts 299°
2026-05-07 12:41 39.08463 21.45094 28102 ft 360 kts 299°
2026-05-07 12:42 39.11124 21.39682 28109 ft 361 kts 300°
2026-05-07 12:42 39.13809 21.34212 28115 ft 361 kts 299°
2026-05-07 12:43 39.16499 21.28720 28106 ft 363 kts 299°
2026-05-07 12:43 39.19200 21.23197 28095 ft 365 kts 299°
2026-05-07 12:44 39.21905 21.17656 28109 ft 366 kts 299°
2026-05-07 12:44 39.24615 21.12097 28097 ft 365 kts 299°
2026-05-07 12:45 39.27306 21.06568 28097 ft 362 kts 299°
2026-05-07 12:45 39.29971 21.01084 28096 ft 359 kts 299°
2026-05-07 12:46 39.32617 20.95626 28085 ft 359 kts 299°
2026-05-07 12:46 39.35255 20.90175 28086 ft 357 kts 299°
2026-05-07 12:47 39.37882 20.84739 28085 ft 356 kts 298°
2026-05-07 12:47 39.40499 20.79313 28094 ft 355 kts 298°
2026-05-07 12:48 39.43113 20.73884 28092 ft 356 kts 298°
2026-05-07 12:48 39.45734 20.68426 28092 ft 358 kts 298°
2026-05-07 12:49 39.48358 20.62951 28109 ft 358 kts 298°
2026-05-07 12:49 39.51002 20.57439 28087 ft 363 kts 298°
2026-05-07 12:50 39.53675 20.51852 28087 ft 366 kts 299°
2026-05-07 12:50 39.56362 20.46225 28083 ft 369 kts 298°
2026-05-07 12:51 39.59016 20.40665 28070 ft 358 kts 298°
2026-05-07 12:51 39.61643 20.35138 28083 ft 362 kts 298°
2026-05-07 12:52 39.64297 20.29545 28059 ft 365 kts 298°
2026-05-07 12:52 39.66958 20.23932 28073 ft 365 kts 298°
2026-05-07 12:53 39.69605 20.18339 28060 ft 363 kts 298°
2026-05-07 12:53 39.72235 20.12774 28085 ft 360 kts 298°
2026-05-07 12:54 39.74848 20.07232 28078 ft 359 kts 298°
2026-05-07 12:54 39.77450 20.01702 28072 ft 358 kts 298°
2026-05-07 12:55 39.80044 19.96180 28076 ft 358 kts 298°
2026-05-07 12:55 39.82637 19.90650 28076 ft 359 kts 298°
2026-05-07 12:56 39.85235 19.85101 28066 ft 359 kts 298°
2026-05-07 12:56 39.87814 19.79582 28068 ft 359 kts 298°
2026-05-07 12:57 39.90411 19.74016 28065 ft 360 kts 298°
2026-05-07 12:57 39.93005 19.68447 28063 ft 360 kts 298°
2026-05-07 12:58 39.95598 19.62868 28063 ft 360 kts 298°
2026-05-07 12:58 39.98191 19.57280 28063 ft 360 kts 298°
2026-05-07 12:59 40.00779 19.51692 28060 ft 360 kts 298°
2026-05-07 12:59 40.03367 19.46095 28057 ft 360 kts 298°
2026-05-07 13:00 40.05953 19.40492 28056 ft 361 kts 297°
2026-05-07 13:00 40.08542 19.34871 28065 ft 362 kts 297°
2026-05-07 13:01 40.11134 19.29235 28060 ft 363 kts 297°
2026-05-07 13:01 40.13729 19.23580 28063 ft 363 kts 297°
2026-05-07 13:02 40.16328 19.17909 28074 ft 363 kts 297°
2026-05-07 13:02 40.18922 19.12237 28064 ft 363 kts 297°
2026-05-07 13:03 40.21075 19.07519 28057 ft 363 kts 297°
2026-05-07 13:03 40.23663 19.01843 28061 ft 363 kts 297°
2026-05-07 13:04 40.26290 18.96202 28063 ft 363 kts 298°
2026-05-07 13:04 40.28995 18.90608 28063 ft 363 kts 299°
2026-05-07 13:05 40.32137 18.84105 28057 ft 363 kts 298°
2026-05-07 13:05 40.34392 18.79414 28065 ft 363 kts 298°
2026-05-07 13:06 40.37080 18.73802 28058 ft 364 kts 298°
2026-05-07 13:06 40.39772 18.68168 28063 ft 365 kts 298°
2026-05-07 13:07 40.42464 18.62522 28066 ft 365 kts 298°
2026-05-07 13:07 40.45141 18.56897 28059 ft 366 kts 298°
2026-05-07 13:08 40.47837 18.51223 28073 ft 366 kts 298°
2026-05-07 13:08 40.50528 18.45546 28060 ft 366 kts 298°
2026-05-07 13:09 40.53220 18.39860 28056 ft 367 kts 298°
2026-05-07 13:09 40.55911 18.34163 28059 ft 367 kts 298°
2026-05-07 13:10 40.58604 18.28451 28058 ft 368 kts 298°
2026-05-07 13:10 40.61301 18.22722 28055 ft 368 kts 298°
2026-05-07 13:11 40.63995 18.16986 28051 ft 368 kts 298°
2026-05-07 13:11 40.66688 18.11245 28050 ft 368 kts 298°
2026-05-07 13:12 40.69376 18.05503 28048 ft 368 kts 298°
2026-05-07 13:12 40.72061 17.99755 28049 ft 368 kts 298°
2026-05-07 13:13 40.74739 17.94013 28049 ft 367 kts 298°
2026-05-07 13:13 40.77411 17.88272 28048 ft 367 kts 298°
2026-05-07 13:14 40.80079 17.82529 28066 ft 367 kts 298°
2026-05-07 13:14 40.82747 17.76776 28052 ft 367 kts 298°
2026-05-07 13:15 40.85411 17.71018 28045 ft 368 kts 297°
2026-05-07 13:15 40.88079 17.65243 28047 ft 368 kts 297°
2026-05-07 13:16 40.90747 17.59458 28043 ft 369 kts 297°
2026-05-07 13:16 40.93418 17.53654 28042 ft 369 kts 297°
2026-05-07 13:17 40.96084 17.47850 28041 ft 369 kts 297°
2026-05-07 13:17 40.98749 17.42038 28038 ft 369 kts 297°
2026-05-07 13:18 41.01409 17.36225 28044 ft 369 kts 297°
2026-05-07 13:18 41.04061 17.30418 28033 ft 368 kts 297°
2026-05-07 13:19 41.06707 17.24615 28032 ft 367 kts 297°
2026-05-07 13:19 41.09325 17.18861 28033 ft 367 kts 297°
2026-05-07 13:20 41.11956 17.13068 28040 ft 367 kts 297°
2026-05-07 13:20 41.14584 17.07269 28032 ft 367 kts 297°
2026-05-07 13:21 41.17215 17.01454 28037 ft 368 kts 297°
2026-05-07 13:21 41.19848 16.95622 28025 ft 368 kts 297°
2026-05-07 13:22 41.22477 16.89788 28018 ft 368 kts 297°
2026-05-07 13:22 41.25103 16.83950 28021 ft 368 kts 297°
2026-05-07 13:23 41.27724 16.78114 28021 ft 367 kts 297°
2026-05-07 13:23 41.30336 16.72283 28018 ft 367 kts 296°
2026-05-07 13:24 41.32945 16.66451 28023 ft 367 kts 296°
2026-05-07 13:24 41.35550 16.60614 28012 ft 367 kts 296°
2026-05-07 13:25 41.38152 16.54772 28009 ft 367 kts 296°
2026-05-07 13:25 41.40750 16.48930 28006 ft 366 kts 296°
2026-05-07 13:26 41.43342 16.43089 28014 ft 367 kts 296°
2026-05-07 13:26 41.45939 16.37224 28006 ft 367 kts 296°
2026-05-07 13:27 41.48516 16.31395 28009 ft 368 kts 295°
2026-05-07 13:27 41.49813 16.28455 27999 ft 368 kts 295°
2026-05-07 13:27 41.51127 16.25476 28010 ft 368 kts 295°
2026-05-07 13:28 41.52406 16.22573 27993 ft 368 kts 295°
2026-05-07 13:28 41.53702 16.19629 28005 ft 368 kts 295°
2026-05-07 13:28 41.54997 16.16681 27996 ft 368 kts 295°
2026-05-07 13:28 41.56290 16.13740 28006 ft 368 kts 295°
2026-05-07 13:29 41.58876 16.07844 27997 ft 368 kts 295°
2026-05-07 13:29 41.61456 16.01950 28012 ft 367 kts 295°
2026-05-07 13:30 41.64033 15.96052 28008 ft 367 kts 295°
2026-05-07 13:30 41.65318 15.93106 27995 ft 367 kts 295°
2026-05-07 13:30 41.66603 15.90158 28001 ft 367 kts 295°
2026-05-07 13:31 41.67886 15.87210 27999 ft 367 kts 295°
2026-05-07 13:31 41.69171 15.84256 27999 ft 367 kts 295°
2026-05-07 13:31 41.70451 15.81308 28000 ft 367 kts 295°
2026-05-07 13:31 41.71733 15.78356 27993 ft 367 kts 295°
2026-05-07 13:32 41.74291 15.72454 28018 ft 367 kts 295°
2026-05-07 13:32 41.76847 15.66544 28021 ft 367 kts 295°
2026-05-07 13:33 41.79403 15.60627 28025 ft 367 kts 294°
2026-05-07 13:33 41.81951 15.54711 28014 ft 366 kts 294°
2026-05-07 13:34 41.85753 15.45867 28010 ft 364 kts 294°
2026-05-07 13:35 41.88256 15.40030 28010 ft 363 kts 294°
2026-05-07 13:35 41.90766 15.34164 28005 ft 362 kts 294°
2026-05-07 13:36 41.93271 15.28297 28019 ft 362 kts 294°
2026-05-07 13:36 41.95779 15.22412 28008 ft 363 kts 294°
2026-05-07 13:37 41.98287 15.16515 27999 ft 364 kts 294°
2026-05-07 13:37 42.00796 15.10605 28003 ft 364 kts 294°
2026-05-07 13:38 42.03305 15.04683 28018 ft 365 kts 294°
2026-05-07 13:38 42.05816 14.98743 28008 ft 365 kts 294°
2026-05-07 13:39 42.08326 14.92796 28016 ft 365 kts 294°
2026-05-07 13:39 42.10833 14.86843 28011 ft 366 kts 293°
2026-05-07 13:40 42.13339 14.80881 28003 ft 365 kts 293°
2026-05-07 13:40 42.14588 14.77904 27999 ft 365 kts 293°
2026-05-07 13:40 42.15835 14.74930 28003 ft 364 kts 293°
2026-05-07 13:41 42.18320 14.68994 28002 ft 363 kts 293°
2026-05-07 13:41 42.19560 14.66028 28000 ft 363 kts 293°
2026-05-07 13:41 42.20798 14.63061 28003 ft 363 kts 293°
2026-05-07 13:42 42.23271 14.57128 28005 ft 363 kts 293°
2026-05-07 13:42 42.25743 14.51187 28010 ft 363 kts 293°
2026-05-07 13:43 42.28214 14.45234 28011 ft 363 kts 293°
2026-05-07 13:43 42.30682 14.39279 28014 ft 363 kts 293°
2026-05-07 13:44 42.33131 14.33358 28032 ft 363 kts 292°
2026-05-07 13:44 42.35594 14.27387 28021 ft 364 kts 292°
2026-05-07 13:45 42.38059 14.21403 28043 ft 364 kts 292°
2026-05-07 13:45 42.40519 14.15418 28027 ft 364 kts 292°
2026-05-07 13:46 42.42972 14.09437 28014 ft 363 kts 292°
2026-05-07 13:46 42.45411 14.03482 28008 ft 361 kts 292°
2026-05-07 13:47 42.47837 13.97542 28009 ft 360 kts 292°
2026-05-07 13:47 42.50257 13.91604 28012 ft 360 kts 292°
2026-05-07 13:48 42.52678 13.85651 28010 ft 361 kts 291°
2026-05-07 13:48 42.55099 13.79685 28012 ft 362 kts 292°
2026-05-07 13:49 42.57529 13.73686 27994 ft 363 kts 292°
2026-05-07 13:49 42.58744 13.70683 27999 ft 363 kts 292°
2026-05-07 13:49 42.59960 13.67675 28009 ft 363 kts 292°
2026-05-07 13:50 42.62390 13.61654 28005 ft 364 kts 292°
2026-05-07 13:50 42.64815 13.55630 28002 ft 363 kts 292°
2026-05-07 13:51 42.67232 13.49616 27996 ft 362 kts 291°
2026-05-07 13:51 42.68030 13.47628 27991 ft 362 kts 292°
2026-05-07 13:51 42.69250 13.44641 27997 ft 362 kts 293°
2026-05-07 13:51 42.70508 13.41670 27992 ft 362 kts 294°
2026-05-07 13:52 42.71777 13.38711 28001 ft 362 kts 294°
2026-05-07 13:52 42.74320 13.32786 27997 ft 363 kts 293°
2026-05-07 13:52 42.75591 13.29813 27993 ft 364 kts 293°
2026-05-07 13:53 42.76860 13.26836 27996 ft 364 kts 293°
2026-05-07 13:53 42.78129 13.23852 27989 ft 365 kts 293°
2026-05-07 13:53 42.79397 13.20862 27987 ft 365 kts 293°
2026-05-07 13:53 42.80665 13.17872 27994 ft 364 kts 293°
2026-05-07 13:54 42.81930 13.14884 27996 ft 365 kts 293°
2026-05-07 13:54 42.84462 13.08889 27990 ft 365 kts 293°
2026-05-07 13:54 42.85726 13.05892 27982 ft 363 kts 294°
2026-05-07 13:55 42.86983 13.02914 27982 ft 361 kts 293°
2026-05-07 13:55 42.88230 12.99952 27990 ft 359 kts 293°
2026-05-07 13:55 42.89472 12.97000 28010 ft 358 kts 294°
2026-05-07 13:55 42.90708 12.94057 28000 ft 357 kts 294°
2026-05-07 13:56 42.91942 12.91115 27981 ft 357 kts 294°
2026-05-07 13:56 42.93176 12.88172 27991 ft 357 kts 294°
2026-05-07 13:56 42.94392 12.85266 27986 ft 358 kts 294°
2026-05-07 13:56 42.95624 12.82320 27975 ft 358 kts 294°
2026-05-07 13:57 42.96858 12.79366 27982 ft 359 kts 294°
2026-05-07 13:57 42.99331 12.73437 28005 ft 360 kts 293°
2026-05-07 13:57 43.00571 12.70461 27999 ft 361 kts 293°
2026-05-07 13:58 43.01812 12.67479 28003 ft 361 kts 294°
2026-05-07 13:58 43.03054 12.64492 27995 ft 362 kts 293°
2026-05-07 13:58 43.04297 12.61499 27989 ft 362 kts 293°
2026-05-07 13:58 43.05538 12.58509 27985 ft 361 kts 293°
2026-05-07 13:59 43.06776 12.55525 27993 ft 360 kts 293°
2026-05-07 13:59 43.08010 12.52547 27988 ft 359 kts 293°
2026-05-07 13:59 43.09240 12.49575 27997 ft 359 kts 293°
2026-05-07 13:59 43.10466 12.46608 27993 ft 358 kts 293°
2026-05-07 14:00 43.11690 12.43644 27988 ft 357 kts 293°
2026-05-07 14:00 43.14128 12.37726 28001 ft 357 kts 293°
2026-05-07 14:01 43.16564 12.31804 28033 ft 357 kts 293°
2026-05-07 14:01 43.17780 12.28841 27997 ft 357 kts 293°
2026-05-07 14:01 43.18998 12.25873 27995 ft 357 kts 293°
2026-05-07 14:02 43.21427 12.19943 28003 ft 357 kts 293°
2026-05-07 14:02 43.22643 12.16970 27996 ft 358 kts 293°
2026-05-07 14:02 43.23858 12.13996 27995 ft 358 kts 293°
2026-05-07 14:02 43.25075 12.11014 27990 ft 358 kts 293°
2026-05-07 14:03 43.26289 12.08037 27999 ft 358 kts 293°
2026-05-07 14:03 43.27504 12.05055 27999 ft 359 kts 293°
2026-05-07 14:03 43.28720 12.02064 28002 ft 360 kts 293°
2026-05-07 14:04 43.31144 11.96098 28002 ft 361 kts 293°
2026-05-07 14:04 43.32363 11.93093 27996 ft 361 kts 293°
2026-05-07 14:04 43.33584 11.90081 27998 ft 360 kts 293°
2026-05-07 14:04 43.34801 11.87076 27997 ft 360 kts 293°
2026-05-07 14:05 43.36014 11.84076 27996 ft 359 kts 293°
2026-05-07 14:05 43.37227 11.81073 27996 ft 359 kts 293°
2026-05-07 14:05 43.38436 11.78079 27999 ft 358 kts 293°
2026-05-07 14:06 43.40847 11.72095 27987 ft 357 kts 293°
2026-05-07 14:06 43.43252 11.66112 28039 ft 358 kts 293°
2026-05-07 14:06 43.44454 11.63113 28000 ft 359 kts 293°
2026-05-07 14:07 43.45662 11.60101 28002 ft 359 kts 293°
2026-05-07 14:07 43.46869 11.57088 27993 ft 360 kts 293°
2026-05-07 14:07 43.48075 11.54075 28000 ft 359 kts 293°
2026-05-07 14:07 43.49280 11.51061 27997 ft 360 kts 293°
2026-05-07 14:08 43.50486 11.48041 27997 ft 360 kts 293°
2026-05-07 14:08 43.51690 11.45022 27998 ft 359 kts 293°
2026-05-07 14:08 43.52892 11.42009 27987 ft 357 kts 293°
2026-05-07 14:08 43.54085 11.39012 27998 ft 357 kts 293°
2026-05-07 14:09 43.55279 11.36007 28013 ft 356 kts 293°
2026-05-07 14:09 43.56451 11.32995 27997 ft 357 kts 292°
2026-05-07 14:09 43.57611 11.29966 27997 ft 357 kts 292°
2026-05-07 14:09 43.58766 11.26937 27998 ft 356 kts 292°
2026-05-07 14:10 43.59917 11.23914 28011 ft 356 kts 292°
2026-05-07 14:10 43.61072 11.20878 27997 ft 357 kts 292°
2026-05-07 14:10 43.62214 11.17876 28000 ft 358 kts 292°
2026-05-07 14:10 43.63387 11.14792 27995 ft 358 kts 292°
2026-05-07 14:11 43.64544 11.11750 27992 ft 358 kts 292°
2026-05-07 14:11 43.66845 11.05692 27990 ft 358 kts 292°
2026-05-07 14:11 43.68002 11.02645 27995 ft 358 kts 292°
2026-05-07 14:12 43.69154 10.99605 28000 ft 357 kts 292°
2026-05-07 14:12 43.71458 10.93516 28004 ft 357 kts 292°
2026-05-07 14:13 43.73754 10.87432 27995 ft 357 kts 292°
2026-05-07 14:13 43.74900 10.84393 27997 ft 357 kts 292°
2026-05-07 14:13 43.76045 10.81350 27997 ft 356 kts 292°
2026-05-07 14:13 43.77188 10.78312 28000 ft 356 kts 292°
2026-05-07 14:14 43.78332 10.75267 28002 ft 356 kts 292°
2026-05-07 14:14 43.80608 10.69198 28007 ft 355 kts 292°
2026-05-07 14:15 43.82882 10.63122 28014 ft 355 kts 292°
2026-05-07 14:15 43.85154 10.57036 28028 ft 356 kts 292°
2026-05-07 14:16 43.87423 10.50946 28014 ft 356 kts 292°
2026-05-07 14:16 43.89695 10.44835 28013 ft 357 kts 291°
2026-05-07 14:17 43.91968 10.38710 28011 ft 357 kts 291°
2026-05-07 14:17 43.94296 10.32660 28017 ft 359 kts 294°
2026-05-07 14:17 43.95527 10.29638 27998 ft 359 kts 294°
2026-05-07 14:18 43.96762 10.26627 28026 ft 359 kts 294°
2026-05-07 14:18 43.99220 10.20605 28014 ft 358 kts 294°
2026-05-07 14:19 44.01651 10.14603 28024 ft 356 kts 294°
2026-05-07 14:19 44.04063 10.08617 28019 ft 354 kts 294°
2026-05-07 14:20 44.06463 10.02638 28020 ft 354 kts 294°
2026-05-07 14:20 44.08858 9.96656 28022 ft 354 kts 294°
2026-05-07 14:21 44.11254 9.90659 28017 ft 355 kts 294°
2026-05-07 14:21 44.13652 9.84645 28031 ft 356 kts 294°
2026-05-07 14:22 44.16059 9.78597 28025 ft 358 kts 294°
2026-05-07 14:22 44.18467 9.72532 28014 ft 358 kts 294°
2026-05-07 14:22 44.19669 9.69498 28000 ft 358 kts 294°
2026-05-07 14:23 44.20870 9.66466 28029 ft 357 kts 294°
2026-05-07 14:23 44.23266 9.60410 28009 ft 357 kts 294°
2026-05-07 14:24 44.25661 9.54337 28015 ft 358 kts 294°
2026-05-07 14:24 44.26861 9.51290 27997 ft 358 kts 294°
2026-05-07 14:24 44.28060 9.48243 28006 ft 358 kts 294°
2026-05-07 14:24 44.29242 9.45234 27997 ft 358 kts 294°
2026-05-07 14:25 44.30455 9.42145 27995 ft 358 kts 294°
2026-05-07 14:25 44.31632 9.39147 27990 ft 357 kts 294°
2026-05-07 14:25 44.32824 9.36104 27988 ft 357 kts 294°
2026-05-07 14:25 44.34015 9.33060 27975 ft 357 kts 294°
2026-05-07 14:26 44.35206 9.30013 27999 ft 357 kts 294°
2026-05-07 14:26 44.36397 9.26963 27989 ft 357 kts 294°
2026-05-07 14:26 44.37585 9.23918 28010 ft 357 kts 294°
2026-05-07 14:27 44.39960 9.17818 28014 ft 358 kts 294°
2026-05-07 14:27 44.42336 9.11701 28018 ft 358 kts 294°
2026-05-07 14:28 44.44710 9.05578 28014 ft 358 kts 294°
2026-05-07 14:28 44.47083 8.99446 28019 ft 358 kts 294°
2026-05-07 14:29 44.49450 8.93313 28021 ft 358 kts 294°
2026-05-07 14:29 44.51809 8.87189 28018 ft 357 kts 294°
2026-05-07 14:30 44.54161 8.81071 28014 ft 356 kts 294°
2026-05-07 14:30 44.56506 8.74953 28026 ft 356 kts 294°
2026-05-07 14:31 44.58852 8.68824 28004 ft 357 kts 294°
2026-05-07 14:31 44.61256 8.62712 28002 ft 358 kts 295°
2026-05-07 14:31 44.62507 8.59696 27991 ft 358 kts 296°
2026-05-07 14:32 44.63769 8.56673 27992 ft 359 kts 296°
2026-05-07 14:32 44.65029 8.53647 27980 ft 359 kts 295°
2026-05-07 14:32 44.66286 8.50615 27973 ft 359 kts 295°
2026-05-07 14:32 44.67541 8.47578 27979 ft 359 kts 295°
2026-05-07 14:33 44.68791 8.44543 27983 ft 360 kts 295°
2026-05-07 14:33 44.70045 8.41490 27979 ft 360 kts 296°
2026-05-07 14:33 44.71295 8.38443 27976 ft 360 kts 296°
2026-05-07 14:33 44.72546 8.35389 27974 ft 360 kts 295°
2026-05-07 14:34 44.73794 8.32338 27974 ft 360 kts 296°
2026-05-07 14:34 44.75044 8.29280 27971 ft 360 kts 296°
2026-05-07 14:34 44.76288 8.26230 27973 ft 360 kts 296°
2026-05-07 14:34 44.77534 8.23174 27968 ft 360 kts 296°
2026-05-07 14:35 44.78780 8.20115 27965 ft 360 kts 295°
2026-05-07 14:35 44.80023 8.17060 27973 ft 359 kts 295°
2026-05-07 14:35 44.81264 8.14006 27974 ft 359 kts 295°
2026-05-07 14:35 44.82503 8.10953 27971 ft 359 kts 295°
2026-05-07 14:36 44.83742 8.07898 27971 ft 359 kts 295°
2026-05-07 14:36 44.84980 8.04842 27969 ft 359 kts 295°
2026-05-07 14:36 44.86217 8.01783 27966 ft 359 kts 295°
2026-05-07 14:36 44.87452 7.98726 27974 ft 359 kts 295°
2026-05-07 14:37 44.88691 7.95659 27963 ft 360 kts 295°
2026-05-07 14:37 44.91164 7.89525 27965 ft 360 kts 295°
2026-05-07 14:37 44.92399 7.86456 27978 ft 360 kts 296°
2026-05-07 14:38 44.93204 7.84408 27979 ft 360 kts 295°
2026-05-07 14:38 44.94760 7.80273 27973 ft 360 kts 294°
2026-05-07 14:38 44.95543 7.78160 27970 ft 360 kts 294°
2026-05-07 14:38 44.96700 7.75027 27966 ft 360 kts 294°
2026-05-07 14:39 44.98251 7.70833 27965 ft 360 kts 294°
2026-05-07 14:39 44.99395 7.67745 27965 ft 360 kts 294°
2026-05-07 14:39 45.00179 7.65632 27968 ft 359 kts 294°
2026-05-07 14:39 45.01717 7.61484 27963 ft 360 kts 294°
2026-05-07 14:40 45.02877 7.58353 27969 ft 360 kts 294°
2026-05-07 14:40 45.03663 7.56233 27970 ft 360 kts 294°
2026-05-07 14:40 45.04825 7.53091 27969 ft 361 kts 294°
2026-05-07 14:40 45.05989 7.49943 27968 ft 362 kts 294°
2026-05-07 14:41 45.07154 7.46788 27969 ft 362 kts 294°
2026-05-07 14:41 45.08321 7.43626 27970 ft 363 kts 294°
2026-05-07 14:41 45.09487 7.40461 27967 ft 363 kts 294°
2026-05-07 14:41 45.10655 7.37287 27968 ft 363 kts 294°
2026-05-07 14:42 45.11823 7.34111 27967 ft 364 kts 294°
2026-05-07 14:42 45.12979 7.30965 27953 ft 354 kts 294°
2026-05-07 14:42 45.14098 7.27921 27887 ft 343 kts 294°
2026-05-07 14:42 45.15186 7.24953 27651 ft 337 kts 294°
2026-05-07 14:43 45.16257 7.22023 27305 ft 334 kts 294°
2026-05-07 14:43 45.17326 7.19098 26900 ft 334 kts 294°
2026-05-07 14:43 45.18391 7.16175 26474 ft 334 kts 293°
2026-05-07 14:43 45.19360 7.13211 26172 ft 328 kts 290°
2026-05-07 14:44 45.20234 7.10220 26038 ft 331 kts 289°
2026-05-07 14:44 45.21094 7.07182 25996 ft 332 kts 289°
2026-05-07 14:44 45.21950 7.04151 26014 ft 330 kts 289°
2026-05-07 14:44 45.22806 7.01130 25999 ft 330 kts 289°
2026-05-07 14:45 45.23666 6.98111 26002 ft 330 kts 289°
2026-05-07 14:45 45.24529 6.95087 26015 ft 331 kts 289°
2026-05-07 14:45 45.25399 6.92048 26005 ft 333 kts 289°
2026-05-07 14:45 45.26270 6.89005 26010 ft 333 kts 290°
2026-05-07 14:46 45.27132 6.85994 26015 ft 334 kts 289°
2026-05-07 14:46 45.28006 6.82940 26012 ft 334 kts 289°
2026-05-07 14:46 45.28877 6.79891 26009 ft 333 kts 289°
2026-05-07 14:46 45.29747 6.76846 25991 ft 332 kts 289°
2026-05-07 14:47 45.30609 6.73822 26000 ft 329 kts 289°
2026-05-07 14:47 45.31468 6.70810 26009 ft 329 kts 289°
2026-05-07 14:47 45.32326 6.67794 26003 ft 329 kts 289°
2026-05-07 14:47 45.33184 6.64773 26001 ft 329 kts 289°
2026-05-07 14:48 45.34040 6.61754 26000 ft 330 kts 289°
2026-05-07 14:48 45.34899 6.58724 26004 ft 330 kts 289°
2026-05-07 14:48 45.35757 6.55695 25996 ft 330 kts 289°
2026-05-07 14:48 45.36614 6.52665 26008 ft 331 kts 289°
2026-05-07 14:49 45.37474 6.49618 26002 ft 332 kts 289°
2026-05-07 14:49 45.38264 6.46531 25990 ft 330 kts 282°
2026-05-07 14:49 45.38610 6.43355 25843 ft 323 kts 272°
2026-05-07 14:49 45.38570 6.40167 25433 ft 322 kts 263°
2026-05-07 14:50 45.38235 6.37017 25008 ft 323 kts 261°
2026-05-07 14:50 45.37858 6.33861 24580 ft 324 kts 260°
2026-05-07 14:50 45.37475 6.30707 24240 ft 323 kts 260°
2026-05-07 14:50 45.37097 6.27565 23894 ft 321 kts 261°
2026-05-07 14:51 45.36724 6.24435 23518 ft 321 kts 261°
2026-05-07 14:51 45.36355 6.21306 23088 ft 320 kts 261°
2026-05-07 14:51 45.35989 6.18197 22701 ft 318 kts 261°
2026-05-07 14:51 45.35624 6.15086 22258 ft 319 kts 261°
2026-05-07 14:52 45.35260 6.11983 21888 ft 318 kts 261°
2026-05-07 14:52 45.34897 6.08899 21549 ft 315 kts 261°
2026-05-07 14:52 45.34536 6.05832 21174 ft 314 kts 261°
2026-05-07 14:52 45.34177 6.02785 20785 ft 310 kts 261°
2026-05-07 14:53 45.33821 5.99775 20243 ft 309 kts 260°
2026-05-07 14:53 45.33463 5.96762 19690 ft 309 kts 260°
2026-05-07 14:53 45.33106 5.93757 19172 ft 308 kts 260°
2026-05-07 14:53 45.32744 5.90770 18688 ft 305 kts 260°
2026-05-07 14:54 45.32381 5.87802 18186 ft 304 kts 260°
2026-05-07 14:54 45.32019 5.84849 17668 ft 303 kts 260°
2026-05-07 14:54 45.31658 5.81915 17106 ft 301 kts 260°
2026-05-07 14:54 45.31304 5.79026 16640 ft 299 kts 259°
2026-05-07 14:55 45.30946 5.76126 16147 ft 297 kts 259°
2026-05-07 14:55 45.30590 5.73243 15659 ft 295 kts 259°
2026-05-07 14:55 45.30238 5.70376 15203 ft 294 kts 259°
2026-05-07 14:55 45.29897 5.67526 14758 ft 292 kts 259°
2026-05-07 14:56 45.29559 5.64697 14310 ft 290 kts 259°
2026-05-07 14:56 45.29216 5.61882 13877 ft 288 kts 259°
2026-05-07 14:56 45.28871 5.59089 13387 ft 286 kts 258°
2026-05-07 14:56 45.28628 5.56302 12866 ft 286 kts 271°
2026-05-07 14:57 45.29172 5.53571 12313 ft 292 kts 298°
2026-05-07 14:57 45.30501 5.51400 11861 ft 295 kts 321°
2026-05-07 14:57 45.32331 5.50092 11410 ft 297 kts 341°
2026-05-07 14:57 45.34316 5.49279 10951 ft 297 kts 338°
2026-05-07 14:58 45.36020 5.47713 10474 ft 292 kts 309°
2026-05-07 14:58 45.37076 5.45298 10058 ft 287 kts 290°
2026-05-07 14:58 45.37813 5.42676 9624 ft 285 kts 289°
2026-05-07 14:58 45.38523 5.40052 9207 ft 283 kts 289°
2026-05-07 14:59 45.39235 5.37454 8810 ft 281 kts 289°
2026-05-07 14:59 45.39950 5.34881 8419 ft 278 kts 290°
2026-05-07 14:59 45.40664 5.32334 8019 ft 277 kts 289°
2026-05-07 14:59 45.41375 5.29799 7625 ft 275 kts 290°
2026-05-07 15:00 45.42079 5.27285 7220 ft 272 kts 290°
2026-05-07 15:00 45.42776 5.24796 6847 ft 269 kts 291°
2026-05-07 15:00 45.43466 5.22332 6492 ft 266 kts 291°
2026-05-07 15:00 45.44148 5.19894 6117 ft 264 kts 291°
2026-05-07 15:01 45.44823 5.17475 5712 ft 262 kts 292°
2026-05-07 15:01 45.45505 5.15074 5299 ft 261 kts 296°
2026-05-07 15:01 45.46653 5.13167 5033 ft 255 kts 332°
2026-05-07 15:01 45.48321 5.12426 5019 ft 249 kts 349°
2026-05-07 15:02 45.50007 5.12066 4933 ft 240 kts 353°
2026-05-07 15:02 45.51641 5.11841 4642 ft 233 kts 355°
2026-05-07 15:02 45.53229 5.11654 4338 ft 226 kts 355°
2026-05-07 15:02 45.54770 5.11471 4044 ft 219 kts 355°
2026-05-07 15:03 45.56246 5.11292 3758 ft 206 kts 355°
2026-05-07 15:03 45.57625 5.11123 3488 ft 193 kts 355°
2026-05-07 15:03 45.58906 5.10966 3264 ft 177 kts 355°
2026-05-07 15:03 45.60079 5.10823 3059 ft 161 kts 355°
2026-05-07 15:04 45.61136 5.10695 2811 ft 147 kts 355°
2026-05-07 15:04 45.62158 5.10570 2629 ft 149 kts 355°
2026-05-07 15:04 45.63195 5.10442 2433 ft 150 kts 355°
2026-05-07 15:04 45.64228 5.10317 2225 ft 150 kts 354°
2026-05-07 15:05 45.65267 5.10190 2032 ft 148 kts 355°
2026-05-07 15:05 45.66289 5.10066 1827 ft 146 kts 354°
2026-05-07 15:05 45.67297 5.09942 1630 ft 146 kts 355°
2026-05-07 15:05 45.68317 5.09818 1419 ft 148 kts 356°
2026-05-07 15:06 45.69353 5.09693 1226 ft 151 kts 356°
2026-05-07 15:06 45.70388 5.09570 1017 ft 147 kts 355°
2026-05-07 15:06 45.71361 5.09447 841 ft 133 kts 356°
2026-05-07 15:06 45.72171 5.09351 814 ft 90 kts 355°
2026-05-07 15:07 45.72583 5.09302 809 ft 36 kts 355°
2026-05-07 15:07 45.72825 5.09208 801 ft 37 kts 329°
2026-05-07 15:07 45.72967 5.09031 793 ft 22 kts 280°
2026-05-07 15:07 45.72958 5.08810 791 ft 22 kts 266°
2026-05-07 15:08 45.72948 5.08594 791 ft 21 kts 264°
2026-05-07 15:08 45.72914 5.08395 789 ft 21 kts 227°
2026-05-07 15:08 45.72780 5.08361 790 ft 20 kts 175°
2026-05-07 15:08 45.72643 5.08378 791 ft 19 kts 175°
2026-05-07 15:09 45.72511 5.08394 795 ft 19 kts 175°
2026-05-07 15:09 45.72382 5.08410 797 ft 18 kts 175°
2026-05-07 15:09 45.72258 5.08425 799 ft 18 kts 175°
2026-05-07 15:09 45.72139 5.08440 801 ft 17 kts 175°
2026-05-07 15:10 45.72021 5.08455 801 ft 18 kts 175°
2026-05-07 15:10 45.71962 5.08334 798 ft 20 kts 283°
2026-05-07 15:10 45.71922 5.08215 796 ft 13 kts 195°
2026-05-07 15:10 45.71832 5.08180 796 ft 14 kts 197°
2026-05-07 15:11 45.71803 5.08132 796 ft 6 kts 288°
2026-05-07 15:11 45.71822 5.08075 795 ft 5 kts 296°
2026-05-07 15:11 45.71831 5.08050 796 ft 0 kts 297°
2026-05-07 15:11 45.71832 5.08047 796 ft 0 kts 297°